Find Starlink 32042

NORAD ID: 60108 Int'l Des: 2024-117 Owner: SPXS Country: US Constellation: starlink operational
LEOCIRCULAR

Live-Position

3D-Globus wird geladen...

Über Starlink 32042

Beschreibung wird geladen...

Nächste Überflüge

Passes for default location (London). Set your location on the main map for personalized predictions.

Höhenverlauf

Loading altitude history...

Zweizeiliger Elementsatz

1 60108U 24117T 26127.17839473 -.00000653 00000-0 -99225-5 0 9998
2 60108 53.1600 125.2843 0001213 89.9105 270.2035 15.30184462105847
Epoch: 7. Mai 2026 • Age: 4 hours

Aktueller Status

Höhe 494.6 km
Geschwindigkeit 7.62 km/s
Subsatellitenpunkt -53.31°S, 40.43°E
Startdatum 23. Juni 2024
Alter 1.8 years
Typ internet

Technische Details

Klassifizierung Payload
Masse 730.00 kg
Trockenmasse 700.00 kg
Gesamtmasse 730.00 kg
Länge 0.30 m
Durchmesser 4.10 m
Spannweite 29.00 m
Form Box + pan
Hersteller SPXS
Bus-Typ Starlink V2M
Phasenstatus In Orbit
Besitzer/Staat SPXS/US

Most Searched